Location: Clanezzo
(45.7500°N, 9.6000°E)
Time: 14:02:16
(UTC+00:00)

USA 307 - Pass Details

Date: 12 May 2021
Orbit: 566 x 577 km, 54.0° (Epoch: 10 May)

Event Time Altitude Azimuth Distance (km) Brightness Sun altitude
Rises 19:30:00 0° 302° (WNW) 2,775 8.9 -7.8°
Reaches altitude 10° 19:32:22 10° 310° (NW) 1,877 7.3 -8.1°
Maximum altitude 19:36:23 39° 20° (NNE) 860 4.0 -8.7°
Drops below altitude 10° 19:40:26 10° 91° (E) 1,878 5.1 -9.2°
Enters shadow 19:40:59 - 93° (E) 2,085 5.3 -9.3°
